Time,TemperatureF,DewpointF,PressureIn,WindDirection,WindDirectionDegrees,WindSpeedMPH,WindSpeedGustMPH,Humidity,HourlyPrecipIn,Conditions,Clouds,dailyrainin,SoftwareType,DateUTC
2013-01-15 00:00:00,40.0,40.0,30.22,NNW,338,1.0,5.0,100,-0.12,,,0.00,Weather View 32 v70,2013-01-15 05:00:00,
2013-01-15 00:02:00,40.0,40.0,30.22,North,0,1.0,5.0,100,-0.12,,,0.00,Weather View 32 v70,2013-01-15 05:02:00,
2013-01-15 00:07:00,39.0,39.0,30.22,NNW,338,1.0,5.0,100,-0.12,,,0.01,Weather View 32 v70,2013-01-15 05:07:00,
2013-01-15 00:12:00,40.0,40.0,30.22,NW,315,0.0,5.0,100,-0.12,,,0.01,Weather View 32 v70,2013-01-15 05:12:00,
2013-01-15 00:17:00,39.0,39.0,30.21,NW,315,1.0,5.0,100,-0.12,,,0.01,Weather View 32 v70,2013-01-15 05:17:00,
2013-01-15 00:22:00,40.0,40.0,30.21,North,0,1.0,5.0,100,-0.12,,,0.01,Weather View 32 v70,2013-01-15 05:22:00,
2013-01-15 00:27:00,39.0,39.0,30.21,NW,315,2.0,4.0,100,-0.12,,,0.01,Weather View 32 v70,2013-01-15 05:27:00,
2013-01-15 00:32:00,39.0,39.0,30.20,North,0,2.0,3.0,100,-0.12,,,0.01,Weather View 32 v70,2013-01-15 05:32:00,
2013-01-15 00:37:00,39.0,39.0,30.20,North,0,2.0,3.0,100,-0.11,,,0.02,Weather View 32 v70,2013-01-15 05:37:00,
2013-01-15 00:42:00,39.0,39.0,30.20,North,0,1.0,3.0,100,-0.11,,,0.02,Weather View 32 v70,2013-01-15 05:42:00,
2013-01-15 00:47:00,39.0,39.0,30.20,NNW,338,3.0,3.0,100,-0.11,,,0.02,Weather View 32 v70,2013-01-15 05:47:00,
2013-01-15 00:52:00,39.0,39.0,30.19,NNE,22,3.0,4.0,100,-0.11,,,0.02,Weather View 32 v70,2013-01-15 05:52:00,
2013-01-15 00:57:00,39.0,39.0,30.19,NNE,22,3.0,5.0,100,-0.10,,,0.03,Weather View 32 v70,2013-01-15 05:57:00,
2013-01-15 01:02:00,39.0,39.0,30.20,NW,315,1.0,5.0,100,0.03,,,0.03,Weather View 32 v70,2013-01-15 06:02:00,
2013-01-15 01:07:00,39.0,39.0,30.19,NNE,22,2.0,5.0,100,0.02,,,0.03,Weather View 32 v70,2013-01-15 06:07:00,
2013-01-15 01:12:00,39.0,39.0,30.19,NW,315,2.0,5.0,100,0.03,,,0.04,Weather View 32 v70,2013-01-15 06:12:00,
2013-01-15 01:17:00,39.0,39.0,30.20,WNW,292,2.0,5.0,100,0.03,,,0.04,Weather View 32 v70,2013-01-15 06:17:00,
2013-01-15 01:22:00,39.0,39.0,30.20,NW,315,1.0,5.0,100,0.03,,,0.04,Weather View 32 v70,2013-01-15 06:22:00,
2013-01-15 01:27:00,39.0,39.0,30.20,NNW,338,1.0,5.0,100,0.03,,,0.04,Weather View 32 v70,2013-01-15 06:27:00,
2013-01-15 01:32:00,39.0,39.0,30.21,SW,225,1.0,5.0,100,0.04,,,0.05,Weather View 32 v70,2013-01-15 06:32:00,
2013-01-15 01:37:00,39.0,39.0,30.21,WNW,292,3.0,5.0,100,0.03,,,0.05,Weather View 32 v70,2013-01-15 06:37:00,
2013-01-15 01:42:00,39.0,39.0,30.21,SW,225,1.0,5.0,100,0.03,,,0.05,Weather View 32 v70,2013-01-15 06:42:00,
2013-01-15 01:47:00,39.0,39.0,30.21,West,270,2.0,5.0,100,0.03,,,0.05,Weather View 32 v70,2013-01-15 06:47:00,
2013-01-15 01:52:00,39.0,39.0,30.21,WSW,248,3.0,5.0,100,0.03,,,0.05,Weather View 32 v70,2013-01-15 06:52:00,
2013-01-15 01:57:00,38.0,38.0,30.20,NNW,338,3.0,5.0,100,0.02,,,0.05,Weather View 32 v70,2013-01-15 06:57:00,
2013-01-15 02:02:00,38.0,38.0,30.19,NNW,338,3.0,5.0,100,0.03,,,0.06,Weather View 32 v70,2013-01-15 07:02:00,
2013-01-15 02:07:00,38.0,38.0,30.18,NNW,338,3.0,7.0,100,0.03,,,0.06,Weather View 32 v70,2013-01-15 07:07:00,
2013-01-15 02:12:00,38.0,38.0,30.20,West,270,3.0,7.0,100,0.02,,,0.06,Weather View 32 v70,2013-01-15 07:12:00,
2013-01-15 02:17:00,38.0,38.0,30.20,WNW,292,3.0,7.0,100,0.03,,,0.07,Weather View 32 v70,2013-01-15 07:17:00,
2013-01-15 02:22:00,38.0,38.0,30.21,West,270,5.0,7.0,100,0.03,,,0.07,Weather View 32 v70,2013-01-15 07:22:00,
2013-01-15 02:27:00,37.0,37.0,30.20,WNW,292,6.0,10.0,100,0.03,,,0.07,Weather View 32 v70,2013-01-15 07:27:00,
2013-01-15 02:32:00,37.0,37.0,30.18,West,270,3.0,10.0,100,0.02,,,0.07,Weather View 32 v70,2013-01-15 07:32:00,
2013-01-15 02:37:00,37.0,37.0,30.18,NNW,338,4.0,10.0,100,0.02,,,0.07,Weather View 32 v70,2013-01-15 07:37:00,
2013-01-15 02:42:00,37.0,37.0,30.17,NNW,338,3.0,10.0,100,0.02,,,0.07,Weather View 32 v70,2013-01-15 07:42:00,
2013-01-15 02:47:00,37.0,37.0,30.19,West,270,5.0,10.0,100,0.02,,,0.07,Weather View 32 v70,2013-01-15 07:47:00,
2013-01-15 02:52:00,37.0,37.0,30.19,SW,225,5.0,10.0,100,0.02,,,0.07,Weather View 32 v70,2013-01-15 07:52:00,
2013-01-15 02:57:00,37.0,37.0,30.19,NW,315,6.0,10.0,100,0.02,,,0.07,Weather View 32 v70,2013-01-15 07:57:00,
2013-01-15 03:02:00,37.0,37.0,30.19,SW,225,5.0,10.0,100,0.01,,,0.07,Weather View 32 v70,2013-01-15 08:02:00,
2013-01-15 03:08:00,37.0,37.0,30.18,NW,315,2.0,10.0,100,0.01,,,0.07,Weather View 32 v70,2013-01-15 08:08:00,
2013-01-15 03:12:00,37.0,37.0,30.18,West,270,3.0,10.0,100,0.01,,,0.07,Weather View 32 v70,2013-01-15 08:12:00,
2013-01-15 03:17:00,37.0,37.0,30.19,SW,225,2.0,10.0,100,0.00,,,0.07,Weather View 32 v70,2013-01-15 08:17:00,
2013-01-15 03:22:00,37.0,37.0,30.19,West,270,5.0,10.0,100,0.00,,,0.07,Weather View 32 v70,2013-01-15 08:22:00,
2013-01-15 03:27:00,36.0,36.0,30.19,WSW,248,6.0,9.0,100,0.00,,,0.07,Weather View 32 v70,2013-01-15 08:27:00,
2013-01-15 03:33:00,36.0,36.0,30.19,WSW,248,3.0,9.0,100,0.00,,,0.07,Weather View 32 v70,2013-01-15 08:33:00,
2013-01-15 03:37:00,36.0,36.0,30.20,West,270,1.0,8.0,100,0.00,,,0.07,Weather View 32 v70,2013-01-15 08:37:00,
2013-01-15 03:42:00,37.0,37.0,30.20,SW,225,1.0,8.0,100,0.00,,,0.07,Weather View 32 v70,2013-01-15 08:42:00,
2013-01-15 03:47:00,37.0,37.0,30.20,SSE,158,1.0,8.0,100,0.00,,,0.07,Weather View 32 v70,2013-01-15 08:47:00,
2013-01-15 03:52:00,37.0,37.0,30.20,ENE,68,0.0,7.0,100,0.00,,,0.07,Weather View 32 v70,2013-01-15 08:52:00,
2013-01-15 03:57:00,36.0,36.0,30.19,NE,45,3.0,7.0,100,0.00,,,0.07,Weather View 32 v70,2013-01-15 08:57:00,
2013-01-15 04:02:00,36.0,36.0,30.18,ESE,112,2.0,8.0,100,0.00,,,0.07,Weather View 32 v70,2013-01-15 09:02:00,
2013-01-15 04:07:00,36.0,36.0,30.18,ENE,68,0.0,8.0,100,0.00,,,0.07,Weather View 32 v70,2013-01-15 09:07:00,
2013-01-15 04:12:00,36.0,36.0,30.18,WSW,248,3.0,8.0,100,0.00,,,0.07,Weather View 32 v70,2013-01-15 09:12:00,
2013-01-15 04:17:00,36.0,36.0,30.19,WSW,248,3.0,8.0,100,0.00,,,0.07,Weather View 32 v70,2013-01-15 09:17:00,
2013-01-15 04:22:00,37.0,37.0,30.19,SW,225,3.0,8.0,100,0.00,,,0.07,Weather View 32 v70,2013-01-15 09:22:00,
2013-01-15 04:27:00,36.0,36.0,30.20,West,270,3.0,8.0,100,0.00,,,0.07,Weather View 32 v70,2013-01-15 09:27:00,
2013-01-15 04:32:00,36.0,36.0,30.19,West,270,3.0,8.0,100,0.00,,,0.07,Weather View 32 v70,2013-01-15 09:32:00,
2013-01-15 04:37:00,36.0,36.0,30.19,WSW,248,3.0,8.0,100,0.00,,,0.07,Weather View 32 v70,2013-01-15 09:37:00,
2013-01-15 04:42:00,36.0,36.0,30.19,West,270,3.0,8.0,100,0.00,,,0.07,Weather View 32 v70,2013-01-15 09:42:00,
2013-01-15 04:47:00,36.0,36.0,30.19,SW,225,3.0,8.0,100,0.00,,,0.07,Weather View 32 v70,2013-01-15 09:47:00,
2013-01-15 04:52:00,36.0,36.0,30.18,West,270,2.0,8.0,100,0.00,,,0.07,Weather View 32 v70,2013-01-15 09:52:00,
2013-01-15 04:57:00,36.0,36.0,30.18,West,270,4.0,8.0,100,0.00,,,0.07,Weather View 32 v70,2013-01-15 09:57:00,
2013-01-15 05:02:00,36.0,36.0,30.18,NW,315,1.0,6.0,100,0.00,,,0.07,Weather View 32 v70,2013-01-15 10:02:00,
2013-01-15 05:07:00,36.0,36.0,30.19,West,270,4.0,6.0,100,0.00,,,0.07,Weather View 32 v70,2013-01-15 10:07:00,
2013-01-15 05:12:00,36.0,36.0,30.19,West,270,4.0,6.0,100,0.00,,,0.07,Weather View 32 v70,2013-01-15 10:12:00,
2013-01-15 05:17:00,36.0,36.0,30.20,West,270,3.0,6.0,100,0.00,,,0.07,Weather View 32 v70,2013-01-15 10:17:00,
2013-01-15 05:22:00,36.0,36.0,30.20,WNW,292,2.0,6.0,100,0.00,,,0.07,Weather View 32 v70,2013-01-15 10:22:00,
2013-01-15 05:27:00,36.0,36.0,30.20,SSW,202,2.0,6.0,100,0.00,,,0.07,Weather View 32 v70,2013-01-15 10:27:00,
2013-01-15 05:32:00,36.0,36.0,30.20,West,270,3.0,6.0,100,0.00,,,0.07,Weather View 32 v70,2013-01-15 10:32:00,
2013-01-15 05:37:00,36.0,36.0,30.21,West,270,4.0,6.0,100,0.00,,,0.07,Weather View 32 v70,2013-01-15 10:37:00,
2013-01-15 05:42:00,36.0,36.0,30.21,SW,225,3.0,6.0,100,0.00,,,0.07,Weather View 32 v70,2013-01-15 10:42:00,
2013-01-15 05:47:00,36.0,36.0,30.22,SW,225,4.0,6.0,100,0.00,,,0.07,Weather View 32 v70,2013-01-15 10:47:00,
2013-01-15 05:52:00,36.0,36.0,30.21,WSW,248,2.0,6.0,100,0.00,,,0.07,Weather View 32 v70,2013-01-15 10:52:00,
2013-01-15 05:57:00,36.0,36.0,30.21,West,270,2.0,6.0,100,0.00,,,0.07,Weather View 32 v70,2013-01-15 10:57:00,
2013-01-15 06:02:00,36.0,36.0,30.21,West,270,3.0,6.0,100,0.00,,,0.07,Weather View 32 v70,2013-01-15 11:02:00,
2013-01-15 06:07:00,36.0,36.0,30.22,WSW,248,4.0,6.0,100,0.00,,,0.07,Weather View 32 v70,2013-01-15 11:07:00,
2013-01-15 06:13:00,37.0,37.0,30.22,WSW,248,3.0,6.0,100,0.00,,,0.07,Weather View 32 v70,2013-01-15 11:13:00,
2013-01-15 06:18:00,37.0,37.0,30.22,SW,225,5.0,6.0,100,0.00,,,0.07,Weather View 32 v70,2013-01-15 11:18:00,
2013-01-15 06:23:00,37.0,37.0,30.22,SW,225,3.0,6.0,100,0.00,,,0.07,Weather View 32 v70,2013-01-15 11:23:00,
2013-01-15 06:28:00,37.0,37.0,30.22,WSW,248,5.0,7.0,100,0.00,,,0.07,Weather View 32 v70,2013-01-15 11:28:00,
2013-01-15 06:33:00,37.0,37.0,30.23,West,270,4.0,7.0,100,0.00,,,0.07,Weather View 32 v70,2013-01-15 11:33:00,
2013-01-15 06:38:00,37.0,37.0,30.23,West,270,5.0,7.0,100,0.00,,,0.07,Weather View 32 v70,2013-01-15 11:38:00,
2013-01-15 06:43:00,37.0,37.0,30.23,SW,225,3.0,7.0,100,0.00,,,0.07,Weather View 32 v70,2013-01-15 11:43:00,
2013-01-15 06:48:00,37.0,37.0,30.23,SW,225,3.0,7.0,100,0.00,,,0.07,Weather View 32 v70,2013-01-15 11:48:00,
2013-01-15 06:53:00,37.0,37.0,30.23,WNW,292,2.0,7.0,100,0.00,,,0.07,Weather View 32 v70,2013-01-15 11:53:00,
2013-01-15 06:58:00,37.0,37.0,30.23,West,270,6.0,7.0,100,0.00,,,0.07,Weather View 32 v70,2013-01-15 11:58:00,
2013-01-15 07:03:00,37.0,37.0,30.23,WSW,248,4.0,7.0,100,0.00,,,0.07,Weather View 32 v70,2013-01-15 12:03:00,
2013-01-15 07:08:00,37.0,37.0,30.24,West,270,5.0,7.0,100,0.00,,,0.07,Weather View 32 v70,2013-01-15 12:08:00,
2013-01-15 07:13:00,37.0,37.0,30.24,WSW,248,3.0,7.0,100,0.00,,,0.07,Weather View 32 v70,2013-01-15 12:13:00,
2013-01-15 07:18:00,37.0,37.0,30.23,West,270,5.0,7.0,100,0.00,,,0.07,Weather View 32 v70,2013-01-15 12:18:00,
2013-01-15 07:23:00,37.0,37.0,30.24,SW,225,4.0,7.0,100,0.00,,,0.07,Weather View 32 v70,2013-01-15 12:23:00,
2013-01-15 07:27:00,37.0,37.0,30.24,NW,315,5.0,7.0,100,0.00,,,0.07,Weather View 32 v70,2013-01-15 12:27:00,
2013-01-15 07:32:00,37.0,37.0,30.24,SSW,202,3.0,7.0,100,0.00,,,0.07,Weather View 32 v70,2013-01-15 12:32:00,
2013-01-15 07:37:00,37.0,37.0,30.25,SW,225,4.0,7.0,100,0.00,,,0.07,Weather View 32 v70,2013-01-15 12:37:00,
2013-01-15 07:43:00,37.0,37.0,30.25,West,270,6.0,7.0,100,0.00,,,0.07,Weather View 32 v70,2013-01-15 12:43:00,
2013-01-15 07:48:00,37.0,37.0,30.25,WSW,248,6.0,10.0,100,0.00,,,0.07,Weather View 32 v70,2013-01-15 12:48:00,
2013-01-15 07:53:00,37.0,37.0,30.25,ESE,112,1.0,10.0,100,0.00,,,0.07,Weather View 32 v70,2013-01-15 12:53:00,
2013-01-15 07:58:00,37.0,37.0,30.25,WSW,248,5.0,10.0,100,0.00,,,0.07,Weather View 32 v70,2013-01-15 12:58:00,
2013-01-15 08:03:00,37.0,37.0,30.25,SW,225,5.0,10.0,100,0.00,,,0.07,Weather View 32 v70,2013-01-15 13:03:00,
2013-01-15 08:08:00,37.0,37.0,30.26,West,270,5.0,10.0,100,0.00,,,0.07,Weather View 32 v70,2013-01-15 13:08:00,
2013-01-15 08:13:00,37.0,37.0,30.26,West,270,5.0,10.0,100,0.00,,,0.07,Weather View 32 v70,2013-01-15 13:13:00,
2013-01-15 08:18:00,37.0,37.0,30.26,SW,225,5.0,10.0,100,0.00,,,0.07,Weather View 32 v70,2013-01-15 13:18:00,
2013-01-15 08:23:00,37.0,37.0,30.27,WSW,248,6.0,10.0,100,0.00,,,0.07,Weather View 32 v70,2013-01-15 13:23:00,
2013-01-15 08:28:00,37.0,37.0,30.27,WSW,248,5.0,10.0,100,0.00,,,0.07,Weather View 32 v70,2013-01-15 13:28:00,
2013-01-15 08:33:00,37.0,36.5,30.27,WSW,248,3.0,10.0,98,0.00,,,0.07,Weather View 32 v70,2013-01-15 13:33:00,
2013-01-15 08:38:00,37.0,36.2,30.28,West,270,3.0,10.0,97,0.00,,,0.07,Weather View 32 v70,2013-01-15 13:38:00,
2013-01-15 08:43:00,37.0,35.7,30.28,WSW,248,5.0,10.0,95,0.00,,,0.07,Weather View 32 v70,2013-01-15 13:43:00,
2013-01-15 08:48:00,37.0,35.4,30.28,WSW,248,7.0,11.0,94,0.00,,,0.07,Weather View 32 v70,2013-01-15 13:48:00,
2013-01-15 08:53:00,37.0,34.9,30.28,SW,225,2.0,11.0,92,0.00,,,0.07,Weather View 32 v70,2013-01-15 13:53:00,
2013-01-15 08:58:00,37.0,34.6,30.28,NW,315,5.0,11.0,91,0.00,,,0.07,Weather View 32 v70,2013-01-15 13:58:00,
2013-01-15 09:03:00,37.0,34.3,30.27,West,270,5.0,11.0,90,0.00,,,0.07,Weather View 32 v70,2013-01-15 14:03:00,
2013-01-15 09:08:00,37.0,34.3,30.27,WNW,292,5.0,11.0,90,0.00,,,0.07,Weather View 32 v70,2013-01-15 14:08:00,
2013-01-15 09:13:00,38.0,35.0,30.27,West,270,3.0,11.0,89,0.00,,,0.07,Weather View 32 v70,2013-01-15 14:13:00,
2013-01-15 09:18:00,38.0,35.0,30.28,WSW,248,5.0,11.0,89,0.00,,,0.07,Weather View 32 v70,2013-01-15 14:18:00,
2013-01-15 09:23:00,38.0,34.8,30.28,SW,225,6.0,11.0,88,0.00,,,0.07,Weather View 32 v70,2013-01-15 14:23:00,
2013-01-15 09:28:00,38.0,34.8,30.28,West,270,6.0,11.0,88,0.00,,,0.07,Weather View 32 v70,2013-01-15 14:28:00,
2013-01-15 09:33:00,38.0,34.5,30.27,West,270,5.0,11.0,87,0.00,,,0.07,Weather View 32 v70,2013-01-15 14:33:00,
2013-01-15 09:38:00,38.0,34.5,30.27,West,270,3.0,11.0,87,0.00,,,0.07,Weather View 32 v70,2013-01-15 14:38:00,
2013-01-15 09:43:00,38.0,34.2,30.27,West,270,4.0,11.0,86,0.00,,,0.07,Weather View 32 v70,2013-01-15 14:43:00,
2013-01-15 09:48:00,38.0,34.2,30.27,SSW,202,7.0,11.0,86,0.00,,,0.07,Weather View 32 v70,2013-01-15 14:48:00,
2013-01-15 09:53:00,38.0,34.2,30.28,WSW,248,4.0,11.0,86,0.00,,,0.07,Weather View 32 v70,2013-01-15 14:53:00,
2013-01-15 09:58:00,38.0,34.2,30.28,WSW,248,5.0,11.0,86,0.00,,,0.07,Weather View 32 v70,2013-01-15 14:58:00,
2013-01-15 10:03:00,38.0,33.9,30.28,WSW,248,8.0,11.0,85,0.00,,,0.07,Weather View 32 v70,2013-01-15 15:03:00,
2013-01-15 10:08:00,38.0,33.9,30.28,WSW,248,5.0,11.0,85,0.00,,,0.07,Weather View 32 v70,2013-01-15 15:08:00,
2013-01-15 10:13:00,38.0,33.6,30.28,WSW,248,6.0,11.0,84,0.00,,,0.07,Weather View 32 v70,2013-01-15 15:13:00,
2013-01-15 10:18:00,38.0,33.6,30.28,WNW,292,7.0,11.0,84,0.00,,,0.07,Weather View 32 v70,2013-01-15 15:18:00,
2013-01-15 10:23:00,38.0,33.3,30.29,West,270,5.0,11.0,83,0.00,,,0.07,Weather View 32 v70,2013-01-15 15:23:00,
2013-01-15 10:28:00,38.0,33.3,30.29,WSW,248,4.0,11.0,83,0.00,,,0.07,Weather View 32 v70,2013-01-15 15:28:00,
2013-01-15 10:33:00,38.0,33.3,30.29,West,270,6.0,11.0,83,0.00,,,0.07,Weather View 32 v70,2013-01-15 15:33:00,
2013-01-15 10:38:00,38.0,33.0,30.29,WSW,248,4.0,11.0,82,0.00,,,0.07,Weather View 32 v70,2013-01-15 15:38:00,
2013-01-15 10:43:00,38.0,33.0,30.28,West,270,5.0,11.0,82,0.00,,,0.07,Weather View 32 v70,2013-01-15 15:43:00,
2013-01-15 10:48:00,38.0,33.0,30.28,West,270,6.0,11.0,82,0.00,,,0.07,Weather View 32 v70,2013-01-15 15:48:00,
2013-01-15 10:53:00,38.0,33.0,30.27,West,270,8.0,10.0,82,0.00,,,0.07,Weather View 32 v70,2013-01-15 15:53:00,
2013-01-15 10:58:00,38.0,33.0,30.28,West,270,3.0,10.0,82,0.00,,,0.07,Weather View 32 v70,2013-01-15 15:58:00,
2013-01-15 11:03:00,38.0,33.0,30.27,West,270,6.0,10.0,82,0.00,,,0.07,Weather View 32 v70,2013-01-15 16:03:00,
2013-01-15 11:08:00,38.0,33.0,30.28,South,180,5.0,11.0,82,0.00,,,0.07,Weather View 32 v70,2013-01-15 16:08:00,
2013-01-15 11:13:00,38.0,32.7,30.28,NW,315,4.0,11.0,81,0.00,,,0.07,Weather View 32 v70,2013-01-15 16:13:00,
2013-01-15 11:18:00,38.0,32.7,30.27,SW,225,8.0,11.0,81,0.00,,,0.07,Weather View 32 v70,2013-01-15 16:18:00,
2013-01-15 11:23:00,38.0,32.7,30.26,West,270,5.0,11.0,81,0.00,,,0.07,Weather View 32 v70,2013-01-15 16:23:00,
2013-01-15 11:28:00,38.0,32.7,30.26,SW,225,5.0,11.0,81,0.00,,,0.07,Weather View 32 v70,2013-01-15 16:28:00,
2013-01-15 11:33:00,38.0,32.7,30.27,SSW,202,4.0,11.0,81,0.00,,,0.07,Weather View 32 v70,2013-01-15 16:33:00,
2013-01-15 11:38:00,38.0,32.4,30.27,WSW,248,5.0,11.0,80,0.00,,,0.07,Weather View 32 v70,2013-01-15 16:38:00,
2013-01-15 11:43:00,38.0,32.4,30.27,West,270,6.0,11.0,80,0.00,,,0.07,Weather View 32 v70,2013-01-15 16:43:00,
2013-01-15 11:48:00,38.0,32.4,30.26,WNW,292,6.0,11.0,80,0.00,,,0.07,Weather View 32 v70,2013-01-15 16:48:00,
2013-01-15 11:53:00,38.0,32.4,30.25,NW,315,5.0,11.0,80,0.00,,,0.07,Weather View 32 v70,2013-01-15 16:53:00,
2013-01-15 11:58:00,38.0,32.7,30.26,West,270,4.0,11.0,81,0.00,,,0.07,Weather View 32 v70,2013-01-15 16:58:00,
2013-01-15 12:03:00,38.0,32.7,30.26,SW,225,5.0,11.0,81,0.00,,,0.07,Weather View 32 v70,2013-01-15 17:03:00,
2013-01-15 12:08:00,38.0,32.7,30.24,West,270,5.0,10.0,81,0.00,,,0.07,Weather View 32 v70,2013-01-15 17:08:00,
2013-01-15 12:13:00,38.0,32.7,30.23,NNW,338,4.0,10.0,81,0.00,,,0.07,Weather View 32 v70,2013-01-15 17:13:00,
2013-01-15 12:18:00,38.0,32.7,30.23,West,270,3.0,10.0,81,0.00,,,0.07,Weather View 32 v70,2013-01-15 17:18:00,
2013-01-15 12:23:00,38.0,32.7,30.23,West,270,6.0,10.0,81,0.00,,,0.07,Weather View 32 v70,2013-01-15 17:23:00,
2013-01-15 12:28:00,38.0,32.7,30.23,NW,315,3.0,10.0,81,0.00,,,0.07,Weather View 32 v70,2013-01-15 17:28:00,
2013-01-15 12:33:00,38.0,32.7,30.22,SW,225,3.0,8.0,81,0.00,,,0.07,Weather View 32 v70,2013-01-15 17:33:00,
2013-01-15 12:38:00,38.0,32.7,30.23,West,270,4.0,8.0,81,0.00,,,0.07,Weather View 32 v70,2013-01-15 17:38:00,
2013-01-15 12:43:00,38.0,32.7,30.23,WSW,248,5.0,8.0,81,0.00,,,0.07,Weather View 32 v70,2013-01-15 17:43:00,
2013-01-15 12:48:00,38.0,32.7,30.22,West,270,3.0,8.0,81,0.00,,,0.07,Weather View 32 v70,2013-01-15 17:48:00,
2013-01-15 12:53:00,38.0,32.7,30.22,WSW,248,4.0,8.0,81,0.00,,,0.07,Weather View 32 v70,2013-01-15 17:53:00,
2013-01-15 12:58:00,38.0,32.4,30.22,West,270,4.0,8.0,80,0.00,,,0.07,Weather View 32 v70,2013-01-15 17:58:00,
2013-01-15 13:03:00,38.0,32.4,30.22,WSW,248,5.0,8.0,80,0.00,,,0.07,Weather View 32 v70,2013-01-15 18:03:00,
2013-01-15 13:08:00,38.0,32.4,30.21,WNW,292,3.0,8.0,80,0.00,,,0.07,Weather View 32 v70,2013-01-15 18:08:00,
2013-01-15 13:13:00,38.0,32.4,30.21,West,270,3.0,8.0,80,0.00,,,0.07,Weather View 32 v70,2013-01-15 18:13:00,
2013-01-15 13:18:00,38.0,32.4,30.21,WSW,248,6.0,8.0,80,0.00,,,0.07,Weather View 32 v70,2013-01-15 18:18:00,
2013-01-15 13:23:00,38.0,32.1,30.21,West,270,5.0,8.0,79,0.00,,,0.07,Weather View 32 v70,2013-01-15 18:23:00,
2013-01-15 13:28:00,38.0,32.1,30.21,WSW,248,5.0,9.0,79,0.00,,,0.07,Weather View 32 v70,2013-01-15 18:28:00,
2013-01-15 13:33:00,38.0,31.7,30.21,SW,225,5.0,9.0,78,0.00,,,0.07,Weather View 32 v70,2013-01-15 18:33:00,
2013-01-15 13:38:00,38.0,31.7,30.21,SW,225,3.0,9.0,78,0.00,,,0.07,Weather View 32 v70,2013-01-15 18:38:00,
2013-01-15 13:43:00,38.0,31.7,30.21,WNW,292,4.0,9.0,78,0.00,,,0.07,Weather View 32 v70,2013-01-15 18:43:00,
2013-01-15 13:48:00,39.0,32.7,30.21,SSW,202,3.0,9.0,78,0.00,,,0.07,Weather View 32 v70,2013-01-15 18:48:00,
2013-01-15 13:53:00,38.0,31.7,30.21,WSW,248,2.0,9.0,78,0.00,,,0.07,Weather View 32 v70,2013-01-15 18:53:00,
2013-01-15 13:58:00,39.0,32.7,30.21,NW,315,3.0,9.0,78,0.00,,,0.07,Weather View 32 v70,2013-01-15 18:58:00,
2013-01-15 14:03:00,38.0,31.4,30.21,West,270,6.0,9.0,77,0.00,,,0.07,Weather View 32 v70,2013-01-15 19:03:00,
2013-01-15 14:07:00,38.0,31.4,30.20,SSW,202,3.0,9.0,77,0.00,,,0.07,Weather View 32 v70,2013-01-15 19:07:00,
2013-01-15 14:12:00,38.0,31.4,30.20,West,270,3.0,9.0,77,0.00,,,0.07,Weather View 32 v70,2013-01-15 19:12:00,
2013-01-15 14:17:00,38.0,31.4,30.20,WSW,248,3.0,9.0,77,0.00,,,0.07,Weather View 32 v70,2013-01-15 19:17:00,
2013-01-15 14:22:00,39.0,32.4,30.21,NW,315,1.0,9.0,77,0.00,,,0.07,Weather View 32 v70,2013-01-15 19:22:00,
2013-01-15 14:27:00,39.0,32.4,30.20,North,0,1.0,9.0,77,0.00,,,0.07,Weather View 32 v70,2013-01-15 19:27:00,
2013-01-15 14:32:00,39.0,32.4,30.20,WSW,248,4.0,7.0,77,0.00,,,0.07,Weather View 32 v70,2013-01-15 19:32:00,
2013-01-15 14:37:00,39.0,32.4,30.19,NW,315,1.0,7.0,77,0.00,,,0.07,Weather View 32 v70,2013-01-15 19:37:00,
2013-01-15 14:42:00,39.0,32.4,30.19,North,0,1.0,7.0,77,0.00,,,0.07,Weather View 32 v70,2013-01-15 19:42:00,
2013-01-15 14:47:00,39.0,32.4,30.20,WSW,248,5.0,8.0,77,0.00,,,0.07,Weather View 32 v70,2013-01-15 19:47:00,
2013-01-15 14:52:00,39.0,32.4,30.20,WNW,292,3.0,8.0,77,0.00,,,0.07,Weather View 32 v70,2013-01-15 19:52:00,
2013-01-15 14:57:00,39.0,32.4,30.20,West,270,4.0,8.0,77,0.00,,,0.07,Weather View 32 v70,2013-01-15 19:57:00,
2013-01-15 15:02:00,39.0,32.7,30.20,WSW,248,3.0,8.0,78,0.00,,,0.07,Weather View 32 v70,2013-01-15 20:02:00,
2013-01-15 15:07:00,39.0,32.7,30.20,West,270,3.0,8.0,78,0.00,,,0.07,Weather View 32 v70,2013-01-15 20:07:00,
2013-01-15 15:12:00,39.0,32.7,30.20,WNW,292,5.0,8.0,78,0.00,,,0.07,Weather View 32 v70,2013-01-15 20:12:00,
2013-01-15 15:17:00,39.0,32.7,30.20,North,0,1.0,8.0,78,0.00,,,0.07,Weather View 32 v70,2013-01-15 20:17:00,
2013-01-15 15:22:00,39.0,32.7,30.20,WNW,292,4.0,8.0,78,0.00,,,0.07,Weather View 32 v70,2013-01-15 20:22:00,
2013-01-15 15:27:00,39.0,32.7,30.20,West,270,3.0,8.0,78,0.00,,,0.07,Weather View 32 v70,2013-01-15 20:27:00,
2013-01-15 15:32:00,39.0,32.7,30.21,SW,225,4.0,8.0,78,0.00,,,0.07,Weather View 32 v70,2013-01-15 20:32:00,
2013-01-15 15:37:00,39.0,32.7,30.21,SW,225,7.0,8.0,78,0.00,,,0.07,Weather View 32 v70,2013-01-15 20:37:00,
2013-01-15 15:42:00,39.0,32.7,30.21,West,270,3.0,8.0,78,0.00,,,0.07,Weather View 32 v70,2013-01-15 20:42:00,
2013-01-15 15:47:00,39.0,32.7,30.22,WSW,248,3.0,9.0,78,0.00,,,0.07,Weather View 32 v70,2013-01-15 20:47:00,
2013-01-15 15:52:00,39.0,32.7,30.22,West,270,2.0,9.0,78,0.00,,,0.07,Weather View 32 v70,2013-01-15 20:52:00,
2013-01-15 15:57:00,39.0,32.7,30.22,WSW,248,3.0,9.0,78,0.00,,,0.07,Weather View 32 v70,2013-01-15 20:57:00,
2013-01-15 16:02:00,39.0,32.4,30.22,WSW,248,4.0,9.0,77,0.00,,,0.07,Weather View 32 v70,2013-01-15 21:02:00,
2013-01-15 16:07:00,39.0,32.4,30.22,WNW,292,6.0,9.0,77,0.00,,,0.07,Weather View 32 v70,2013-01-15 21:07:00,
2013-01-15 16:12:00,39.0,32.4,30.22,WSW,248,4.0,9.0,77,0.00,,,0.07,Weather View 32 v70,2013-01-15 21:12:00,
2013-01-15 16:17:00,39.0,32.4,30.21,WNW,292,2.0,9.0,77,0.00,,,0.07,Weather View 32 v70,2013-01-15 21:17:00,
2013-01-15 16:22:00,39.0,32.4,30.22,West,270,3.0,9.0,77,0.00,,,0.07,Weather View 32 v70,2013-01-15 21:22:00,
2013-01-15 16:27:00,38.0,31.4,30.22,West,270,6.0,9.0,77,0.00,,,0.07,Weather View 32 v70,2013-01-15 21:27:00,
2013-01-15 16:32:00,38.0,31.4,30.22,NW,315,4.0,9.0,77,0.00,,,0.07,Weather View 32 v70,2013-01-15 21:32:00,
2013-01-15 16:37:00,39.0,32.4,30.21,WSW,248,3.0,9.0,77,0.00,,,0.07,Weather View 32 v70,2013-01-15 21:37:00,
2013-01-15 16:42:00,38.0,31.7,30.21,WNW,292,4.0,9.0,78,0.00,,,0.07,Weather View 32 v70,2013-01-15 21:42:00,
2013-01-15 16:47:00,38.0,31.7,30.22,WSW,248,3.0,8.0,78,0.00,,,0.07,Weather View 32 v70,2013-01-15 21:47:00,
2013-01-15 16:52:00,38.0,31.7,30.21,WNW,292,3.0,8.0,78,0.00,,,0.07,Weather View 32 v70,2013-01-15 21:52:00,
2013-01-15 16:57:00,38.0,31.7,30.22,West,270,3.0,8.0,78,0.00,,,0.07,Weather View 32 v70,2013-01-15 21:57:00,
2013-01-15 17:02:00,38.0,32.1,30.22,West,270,3.0,8.0,79,0.00,,,0.07,Weather View 32 v70,2013-01-15 22:02:00,
2013-01-15 17:07:00,38.0,32.1,30.21,West,270,3.0,8.0,79,0.00,,,0.07,Weather View 32 v70,2013-01-15 22:07:00,
2013-01-15 17:12:00,38.0,32.1,30.21,West,270,5.0,7.0,79,0.00,,,0.07,Weather View 32 v70,2013-01-15 22:12:00,
2013-01-15 17:17:00,38.0,32.1,30.22,SW,225,3.0,8.0,79,0.00,,,0.07,Weather View 32 v70,2013-01-15 22:17:00,
2013-01-15 17:22:00,38.0,32.4,30.22,SW,225,4.0,8.0,80,0.00,,,0.07,Weather View 32 v70,2013-01-15 22:22:00,
2013-01-15 17:27:00,38.0,32.4,30.20,West,270,5.0,8.0,80,0.00,,,0.07,Weather View 32 v70,2013-01-15 22:27:00,
2013-01-15 17:32:00,38.0,32.4,30.19,NNW,338,4.0,8.0,80,0.00,,,0.07,Weather View 32 v70,2013-01-15 22:32:00,
2013-01-15 17:37:00,38.0,32.4,30.20,West,270,3.0,8.0,80,0.00,,,0.07,Weather View 32 v70,2013-01-15 22:37:00,
2013-01-15 17:42:00,38.0,32.4,30.21,WNW,292,5.0,8.0,80,0.00,,,0.07,Weather View 32 v70,2013-01-15 22:42:00,
2013-01-15 17:47:00,38.0,32.7,30.21,WNW,292,3.0,8.0,81,0.00,,,0.07,Weather View 32 v70,2013-01-15 22:47:00,
2013-01-15 17:52:00,38.0,32.7,30.20,NW,315,1.0,8.0,81,0.00,,,0.07,Weather View 32 v70,2013-01-15 22:52:00,
2013-01-15 17:57:00,38.0,32.4,30.20,WNW,292,3.0,8.0,80,0.00,,,0.07,Weather View 32 v70,2013-01-15 22:57:00,
2013-01-15 18:02:00,38.0,32.4,30.20,WNW,292,5.0,8.0,80,0.00,,,0.07,Weather View 32 v70,2013-01-15 23:02:00,
2013-01-15 18:07:00,38.0,32.4,30.19,NW,315,2.0,8.0,80,0.00,,,0.07,Weather View 32 v70,2013-01-15 23:07:00,
2013-01-15 18:12:00,38.0,32.4,30.19,NW,315,1.0,8.0,80,0.00,,,0.07,Weather View 32 v70,2013-01-15 23:12:00,
2013-01-15 18:17:00,38.0,32.4,30.20,West,270,3.0,7.0,80,0.00,,,0.07,Weather View 32 v70,2013-01-15 23:17:00,
2013-01-15 18:22:00,38.0,32.4,30.22,SSW,202,5.0,7.0,80,0.00,,,0.07,Weather View 32 v70,2013-01-15 23:22:00,
2013-01-15 18:27:00,38.0,32.4,30.23,WSW,248,4.0,7.0,80,0.00,,,0.07,Weather View 32 v70,2013-01-15 23:27:00,
2013-01-15 18:32:00,38.0,32.4,30.24,WNW,292,3.0,7.0,80,0.00,,,0.07,Weather View 32 v70,2013-01-15 23:32:00,
2013-01-15 18:37:00,38.0,32.4,30.23,WSW,248,5.0,7.0,80,0.00,,,0.07,Weather View 32 v70,2013-01-15 23:37:00,
2013-01-15 18:42:00,38.0,32.1,30.23,South,180,1.0,7.0,79,0.00,,,0.07,Weather View 32 v70,2013-01-15 23:42:00,
2013-01-15 18:47:00,38.0,32.1,30.23,WNW,292,3.0,7.0,79,0.00,,,0.07,Weather View 32 v70,2013-01-15 23:47:00,
2013-01-15 18:52:00,38.0,31.7,30.23,West,270,5.0,7.0,78,0.00,,,0.07,Weather View 32 v70,2013-01-15 23:52:00,
2013-01-15 18:57:00,38.0,31.7,30.23,North,0,2.0,7.0,78,0.00,,,0.07,Weather View 32 v70,2013-01-15 23:57:00,
2013-01-15 19:02:00,38.0,31.4,30.23,NW,315,3.0,7.0,77,0.00,,,0.07,Weather View 32 v70,2013-01-16 00:02:00,
2013-01-15 19:07:00,38.0,31.4,30.23,WNW,292,5.0,7.0,77,0.00,,,0.07,Weather View 32 v70,2013-01-16 00:07:00,
2013-01-15 19:12:00,38.0,31.4,30.21,NW,315,2.0,7.0,77,0.00,,,0.07,Weather View 32 v70,2013-01-16 00:12:00,
2013-01-15 19:17:00,38.0,31.4,30.21,WNW,292,2.0,7.0,77,0.00,,,0.07,Weather View 32 v70,2013-01-16 00:17:00,
2013-01-15 19:22:00,38.0,31.4,30.22,North,0,1.0,7.0,77,0.00,,,0.07,Weather View 32 v70,2013-01-16 00:22:00,
2013-01-15 19:27:00,38.0,31.4,30.21,NW,315,2.0,7.0,77,0.00,,,0.07,Weather View 32 v70,2013-01-16 00:27:00,
2013-01-15 19:32:00,38.0,31.4,30.21,North,0,2.0,7.0,77,0.00,,,0.07,Weather View 32 v70,2013-01-16 00:32:00,
2013-01-15 19:37:00,38.0,31.4,30.21,WNW,292,2.0,7.0,77,0.00,,,0.07,Weather View 32 v70,2013-01-16 00:37:00,
2013-01-15 19:42:00,38.0,31.7,30.21,WNW,292,1.0,7.0,78,0.00,,,0.07,Weather View 32 v70,2013-01-16 00:42:00,
2013-01-15 19:47:00,38.0,31.7,30.21,NW,315,2.0,7.0,78,0.00,,,0.07,Weather View 32 v70,2013-01-16 00:47:00,
2013-01-15 19:52:00,38.0,31.7,30.21,NW,315,2.0,7.0,78,0.00,,,0.07,Weather View 32 v70,2013-01-16 00:52:00,
2013-01-15 19:57:00,38.0,31.7,30.20,NNW,338,1.0,6.0,78,0.00,,,0.07,Weather View 32 v70,2013-01-16 00:57:00,
2013-01-15 20:02:00,38.0,31.7,30.20,WNW,292,1.0,6.0,78,0.00,,,0.07,Weather View 32 v70,2013-01-16 01:02:00,
2013-01-15 20:07:00,38.0,32.1,30.20,NNW,338,2.0,6.0,79,0.00,,,0.07,Weather View 32 v70,2013-01-16 01:07:00,
2013-01-15 20:12:00,38.0,32.1,30.20,North,0,2.0,6.0,79,0.00,,,0.07,Weather View 32 v70,2013-01-16 01:12:00,
2013-01-15 20:17:00,38.0,32.1,30.20,NNW,338,1.0,4.0,79,0.00,,,0.07,Weather View 32 v70,2013-01-16 01:17:00,
2013-01-15 20:22:00,38.0,32.1,30.20,North,0,1.0,4.0,79,0.00,,,0.07,Weather View 32 v70,2013-01-16 01:22:00,
2013-01-15 20:27:00,38.0,32.1,30.21,East,90,0.0,4.0,79,0.00,,,0.07,Weather View 32 v70,2013-01-16 01:27:00,
2013-01-15 20:32:00,38.0,32.1,30.21,WNW,292,1.0,3.0,79,0.00,,,0.07,Weather View 32 v70,2013-01-16 01:32:00,
2013-01-15 20:37:00,38.0,32.1,30.21,West,270,0.0,3.0,79,0.00,,,0.07,Weather View 32 v70,2013-01-16 01:37:00,
2013-01-15 20:42:00,38.0,32.1,30.20,North,0,1.0,3.0,79,0.00,,,0.07,Weather View 32 v70,2013-01-16 01:42:00,
2013-01-15 20:47:00,38.0,32.1,30.20,NW,315,1.0,3.0,79,0.00,,,0.07,Weather View 32 v70,2013-01-16 01:47:00,
2013-01-15 20:52:00,38.0,32.1,30.20,West,270,2.0,3.0,79,0.00,,,0.07,Weather View 32 v70,2013-01-16 01:52:00,
2013-01-15 20:57:00,38.0,32.1,30.18,NNW,338,2.0,5.0,79,0.00,,,0.07,Weather View 32 v70,2013-01-16 01:57:00,
2013-01-15 21:02:00,38.0,32.1,30.19,NW,315,1.0,5.0,79,0.00,,,0.07,Weather View 32 v70,2013-01-16 02:02:00,
2013-01-15 21:07:00,38.0,32.1,30.18,NNW,338,1.0,5.0,79,0.00,,,0.07,Weather View 32 v70,2013-01-16 02:07:00,
2013-01-15 21:12:00,38.0,32.4,30.19,NNW,338,3.0,5.0,80,0.00,,,0.07,Weather View 32 v70,2013-01-16 02:12:00,
2013-01-15 21:17:00,38.0,32.4,30.18,NNW,338,1.0,5.0,80,0.00,,,0.07,Weather View 32 v70,2013-01-16 02:17:00,
2013-01-15 21:22:00,38.0,32.4,30.18,North,0,0.0,5.0,80,0.00,,,0.07,Weather View 32 v70,2013-01-16 02:22:00,
2013-01-15 21:27:00,38.0,32.4,30.18,East,90,0.0,5.0,80,0.00,,,0.07,Weather View 32 v70,2013-01-16 02:27:00,
2013-01-15 21:32:00,38.0,32.7,30.18,NNW,338,1.0,5.0,81,0.00,,,0.07,Weather View 32 v70,2013-01-16 02:32:00,
2013-01-15 21:37:00,38.0,32.7,30.18,WNW,292,0.0,5.0,81,0.00,,,0.07,Weather View 32 v70,2013-01-16 02:37:00,
2013-01-15 21:42:00,38.0,32.7,30.18,NW,315,2.0,5.0,81,0.00,,,0.07,Weather View 32 v70,2013-01-16 02:42:00,
2013-01-15 21:47:00,38.0,32.7,30.18,NNW,338,2.0,5.0,81,0.00,,,0.07,Weather View 32 v70,2013-01-16 02:47:00,
2013-01-15 21:52:00,38.0,32.7,30.17,WSW,248,4.0,5.0,81,0.02,,,0.07,Weather View 32 v70,2013-01-16 02:52:00,
2013-01-15 21:57:00,37.0,32.0,30.17,WNW,292,4.0,5.0,82,0.02,,,0.07,Weather View 32 v70,2013-01-16 02:57:00,
2013-01-15 22:02:00,37.0,32.0,30.16,NNW,338,1.0,5.0,82,0.03,,,0.07,Weather View 32 v70,2013-01-16 03:02:00,
2013-01-15 22:07:00,37.0,32.3,30.16,North,0,1.0,5.0,83,0.03,,,0.07,Weather View 32 v70,2013-01-16 03:07:00,
2013-01-15 22:12:00,37.0,32.6,30.17,WNW,292,2.0,5.0,84,0.00,,,0.07,Weather View 32 v70,2013-01-16 03:12:00,
2013-01-15 22:17:00,37.0,32.9,30.17,WNW,292,3.0,5.0,85,0.00,,,0.07,Weather View 32 v70,2013-01-16 03:17:00,
2013-01-15 22:22:00,37.0,33.2,30.17,West,270,1.0,5.0,86,0.00,,,0.07,Weather View 32 v70,2013-01-16 03:22:00,
2013-01-15 22:27:00,37.0,33.5,30.16,WNW,292,3.0,5.0,87,0.00,,,0.08,Weather View 32 v70,2013-01-16 03:27:00,
2013-01-15 22:32:00,37.0,33.8,30.16,NNW,338,2.0,5.0,88,0.01,,,0.08,Weather View 32 v70,2013-01-16 03:32:00,
2013-01-15 22:37:00,37.0,34.3,30.17,SW,225,2.0,5.0,90,0.01,,,0.08,Weather View 32 v70,2013-01-16 03:37:00,
2013-01-15 22:42:00,36.0,33.6,30.17,SSW,202,4.0,5.0,91,0.01,,,0.08,Weather View 32 v70,2013-01-16 03:42:00,
2013-01-15 22:47:00,36.0,34.2,30.17,West,270,3.0,5.0,93,0.01,,,0.08,Weather View 32 v70,2013-01-16 03:47:00,
2013-01-15 22:52:00,36.0,34.4,30.17,West,270,5.0,5.0,94,0.02,,,0.09,Weather View 32 v70,2013-01-16 03:52:00,
2013-01-15 22:57:00,36.0,35.0,30.17,WSW,248,4.0,5.0,96,0.02,,,0.09,Weather View 32 v70,2013-01-16 03:57:00,
2013-01-15 23:02:00,36.0,35.2,30.17,West,270,2.0,5.0,97,0.02,,,0.09,Weather View 32 v70,2013-01-16 04:02:00,
2013-01-15 23:07:00,36.0,35.7,30.17,WSW,248,3.0,5.0,99,0.06,,,0.10,Weather View 32 v70,2013-01-16 04:07:00,
2013-01-15 23:12:00,36.0,36.0,30.16,WNW,292,2.0,5.0,100,0.06,,,0.10,Weather View 32 v70,2013-01-16 04:12:00,
2013-01-15 23:17:00,35.0,35.0,30.15,West,270,3.0,5.0,100,0.06,,,0.10,Weather View 32 v70,2013-01-16 04:17:00,
2013-01-15 23:22:00,35.0,35.0,30.16,WSW,248,3.0,5.0,100,0.03,,,0.10,Weather View 32 v70,2013-01-16 04:22:00,
2013-01-15 23:27:00,35.0,35.0,30.16,West,270,2.0,5.0,100,0.04,,,0.11,Weather View 32 v70,2013-01-16 04:27:00,
2013-01-15 23:32:00,35.0,35.0,30.15,WNW,292,3.0,5.0,100,0.03,,,0.11,Weather View 32 v70,2013-01-16 04:32:00,
2013-01-15 23:37:00,35.0,35.0,30.15,West,270,2.0,5.0,100,0.03,,,0.11,Weather View 32 v70,2013-01-16 04:37:00,
2013-01-15 23:42:00,35.0,35.0,30.14,WSW,248,1.0,5.0,100,0.03,,,0.11,Weather View 32 v70,2013-01-16 04:42:00,
2013-01-15 23:47:00,35.0,35.0,30.14,WNW,292,4.0,6.0,100,0.04,,,0.12,Weather View 32 v70,2013-01-16 04:47:00,
2013-01-15 23:52:00,35.0,35.0,30.14,NNW,338,5.0,6.0,100,0.03,,,0.12,Weather View 32 v70,2013-01-16 04:52:00,
2013-01-15 23:57:00,35.0,35.0,30.14,WNW,292,4.0,6.0,100,0.04,,,0.13,Weather View 32 v70,2013-01-16 04:57:00,